FW3135 Weather Reports


Display with metric or nautical units.
time (UTC)temp
F
wind
direction
speed
MPH
gust
MPH
rain 1hr
in
rain 24hr
in
rain mn
in
humidity
%
barometer
mb
20260906141337 85 346 10.0 18.0 0.00 0.00 0.00 55 1022.9
20260906140828 85 338 9.0 16.0 0.00 0.00 0.00 55 1022.9
20260906140330 85 80 9.0 16.0 0.00 0.00 0.00 56 1022.9
20260906135834 85 39 10.0 17.0 0.00 0.00 0.00 57 1022.9
20260906135328 85 59 8.0 17.0 0.00 0.00 0.00 57 1022.9
20260906134832 86 42 9.0 14.0 0.00 0.00 0.00 55 1022.9
20260906134328 85 66 8.0 14.0 0.00 0.00 0.00 56 1023.0
20260906133823 85 61 6.0 15.0 0.00 0.00 0.00 56 1023.0
20260906133344 85 71 6.0 15.0 0.00 0.00 0.00 57 1023.0
20260906132316 85 72 5.0 14.0 0.00 0.00 0.00 57 1022.9
20260906131835 85 42 6.0 14.0 0.00 0.00 0.00 57 1023.0
20260906131331 85 79 4.0 12.0 0.00 0.00 0.00 58 1023.0
20260906130834 85 96 5.0 12.0 0.00 0.00 0.00 57 1023.0
20260906130351 85 96 5.0 12.0 0.00 0.00 0.00 57 1023.1
20260906125844 85 360 5.0 13.0 0.00 0.00 0.00 58 1023.0
20260906125323 84 68 6.0 12.0 0.00 0.00 0.00 58 1022.9
20260906124854 84 38 6.0 13.0 0.00 0.00 0.00 59 1022.9
20260906124317 84 42 6.0 13.0 0.00 0.00 0.00 60 1023.0
20260906123816 83 42 7.0 13.0 0.00 0.00 0.00 61 1023.0
20260906123338 82 74 4.0 12.0 0.00 0.00 0.00 63 1023.0
20260906122813 81 229 2.0 5.0 0.00 0.00 0.00 64 1023.1
20260906122334 81 240 2.0 9.0 0.00 0.00 0.00 64 1023.1
20260906121835 81 360 4.0 9.0 0.00 0.00 0.00 65 1023.1
20260906121329 80 245 3.0 5.0 0.00 0.00 0.00 64 1023.2
20260906120832 81 238 2.0 9.0 0.00 0.00 0.00 64 1023.1
20260906120329 82 261 2.0 9.0 0.00 0.00 0.00 62 1023.1
20260906115829 82 297 3.0 9.0 0.00 0.00 0.00 62 1023.2
20260906115337 83 360 3.0 9.0 0.00 0.00 0.00 61 1023.3
20260906114846 82 49 2.0 8.0 0.00 0.00 0.00 61 1023.3
20260906114329 82 260 2.0 11.0 0.00 0.00 0.00 63 1023.4
20260906113825 82 320 4.0 12.0 0.00 0.00 0.00 61 1023.4
20260906111840 81 38 7.0 12.0 0.00 0.00 0.00 63 1023.4
20260906110845 81 360 6.0 13.0 0.00 0.00 0.00 62 1023.4
20260906105859 81 57 5.0 10.0 0.00 0.00 0.00 64 1023.4
20260906105330 81 331 4.0 9.0 0.00 0.00 0.00 65 1023.5
20260906104841 80 105 3.0 10.0 0.00 0.00 0.00 66 1023.4
20260906104335 80 350 3.0 11.0 0.00 0.00 0.00 67 1023.5
20260906103827 80 74 5.0 10.0 0.00 0.00 0.00 68 1023.5
20260906103324 79 360 6.0 12.0 0.00 0.00 0.00 69 1023.4
20260906102325 79 45 4.0 12.0 0.00 0.00 0.00 71 1023.6
20260906101815 78 105 4.0 13.0 0.00 0.00 0.00 73 1023.5
20260906101315 78 59 5.0 12.0 0.00 0.00 0.00 73 1023.5
20260906100854 77 323 6.0 12.0 0.00 0.00 0.00 74 1023.5
20260906100327 76 360 1.0 4.0 0.00 0.00 0.00 75 1023.5
20260906095830 75 261 0.0 4.0 0.00 0.00 0.00 75 1023.5
20260906095341 74 261 2.0 4.0 0.00 0.00 0.00 76 1023.4
20260906092828 72 254 3.0 4.0 0.00 0.00 0.00 80 1023.5
20260906092327 72 257 2.0 4.0 0.00 0.00 0.00 81 1023.2
20260906091836 71 259 2.0 4.0 0.00 0.00 0.00 81 1023.1
20260906091318 71 252 2.0 4.0 0.00 0.00 0.00 81 1023.2
20260906090822 71 244 1.0 3.0 0.00 0.00 0.00 81 1023.0
20260906085820 71 244 2.0 4.0 0.00 0.00 0.00 80 1023.0
20260906085325 71 240 2.0 4.0 0.00 0.00 0.00 80 1022.9
20260906084830 71 265 2.0 4.0 0.00 0.00 0.00 79 1022.9
20260906084324 72 270 3.0 4.0 0.00 0.00 0.00 78 1023.0
20260906083838 72 279 1.0 3.0 0.00 0.00 0.00 78 1022.9
20260906083313 73 290 2.0 3.0 0.00 0.00 0.00 77 1022.9
20260906082901 73 360 1.0 3.0 0.00 0.00 0.00 76 1022.9
20260906082325 75 268 0.0 0.0 0.00 0.00 0.00 76 1022.9
20260906081820 75 282 0.0 0.0 0.00 0.00 0.00 78 1022.9
20260906081319 74 282 0.0 0.0 0.00 0.00 0.00 79 1022.9
20260906080838 74 282 0.0 0.0 0.00 0.00 0.00 80 1022.9
20260906080329 73 282 0.0 0.0 0.00 0.00 0.00 80 1023.0
20260906075831 72 282 0.0 0.0 0.00 0.00 0.00 80 1022.8
20260906075327 72 282 0.0 0.0 0.00 0.00 0.00 80 1022.8
20260906074826 72 284 0.0 0.0 0.00 0.00 0.00 80 1022.8
20260906063328 69 105 2.0 8.0 0.00 0.00 0.00 87 1022.2
20260906062336 69 40 4.0 8.0 0.00 0.00 0.00 87 1022.2
20260906060835 69 51 4.0 9.0 0.00 0.00 0.00 87 1022.0
20260906052411 69 76 4.0 11.0 0.00 0.00 0.00 87 1021.7
20260906044848 69 360 6.0 10.0 0.00 0.00 0.00 85 1021.6
20260906044331 69 360 5.0 10.0 0.00 0.00 0.00 85 1021.6
20260906043827 69 78 4.0 8.0 0.00 0.00 0.00 85 1021.6
20260906043526 69 95 3.0 9.0 0.00 0.00 0.00 85 1021.6
20260906043401 69 95 3.0 9.0 0.00 0.00 0.00 85 1021.6
20260906023845 70 194 0.0 3.0 0.00 0.00 0.00 82 1021.2
20260906023321 70 194 1.0 4.0 0.00 0.00 0.00 83 1021.2
20260906022823 70 194 2.0 4.0 0.00 0.00 0.00 83 1021.3
20260906022317 70 190 1.0 3.0 0.00 0.00 0.00 82 1021.3
20260906021819 70 244 0.0 3.0 0.00 0.00 0.00 82 1021.4
20260906021315 71 244 0.0 3.0 0.00 0.00 0.00 82 1021.5
20260906020839 71 272 0.0 2.0 0.00 0.00 0.00 82 1021.5
20260906014912 71 272 0.0 1.0 0.00 0.00 0.00 81 1021.5
20260906014323 71 272 0.0 1.0 0.00 0.00 0.00 81 1021.6
20260906013834 71 272 0.0 1.0 0.00 0.00 0.00 81 1021.6
20260906013320 71 272 0.0 3.0 0.00 0.00 0.00 81 1021.6
20260906012335 71 360 1.0 3.0 0.00 0.00 0.00 81 1021.7
20260906001904 70 273 0.0 2.0 0.00 0.00 0.00 86 1022.2
20260906000929 70 275 1.0 3.0 0.00 0.00 0.00 86 1022.3
20260905225923 70 267 0.0 3.0 0.00 0.00 0.00 84 1022.2
20260905172321 83 264 2.0 8.0 0.00 0.00 0.00 58 1019.9
20260905171325 84 360 4.0 6.0 0.00 0.00 0.00 55 1019.9
20260905170833 84 360 3.0 6.0 0.00 0.00 0.00 54 1019.8
20260905170323 83 360 3.0 6.0 0.00 0.00 0.00 57 1019.8
20260905165833 82 360 3.0 9.0 0.00 0.00 0.00 59 1019.7
20260905165347 81 360 3.0 9.0 0.00 0.00 0.00 62 1019.8
20260905164836 81 360 3.0 8.0 0.00 0.00 0.00 66 1019.8
20260905163831 80 360 5.0 10.0 0.00 0.00 0.00 67 1019.6
20260905163329 79 360 3.0 8.0 0.00 0.00 0.00 70 1019.7
20260905162834 79 360 2.0 9.0 0.00 0.00 0.00 70 1019.7
20260905162314 80 360 3.0 6.0 0.00 0.00 0.00 68 1019.5
20260905161855 81 360 3.0 4.0 0.00 0.00 0.00 66 1019.4
20260905161330 81 360 2.0 4.0 0.00 0.00 0.00 66 1019.3
20260905160833 81 242 1.0 4.0 0.00 0.00 0.00 65 1019.4
20260905160328 82 360 2.0 8.0 0.00 0.00 0.00 64 1019.4
20260905155829 83 360 4.0 8.0 0.00 0.00 0.00 61 1019.3
20260905155332 84 360 5.0 8.0 0.00 0.00 0.00 57 1019.3
20260905154847 85 360 4.0 8.0 0.00 0.00 0.00 57 1019.3
20260905153819 85 254 4.0 8.0 0.00 0.00 0.00 56 1019.2
20260905153321 85 360 4.0 9.0 0.00 0.00 0.00 56 1019.3
20260905152839 84 360 4.0 9.0 0.00 0.00 0.00 57 1019.4
20260905152318 83 360 4.0 9.0 0.00 0.00 0.00 59 1019.6
20260905151821 82 360 4.0 9.0 0.00 0.00 0.00 62 1019.6
20260905151320 81 360 4.0 8.0 0.00 0.00 0.00 65 1019.8
20260905143818 83 360 2.0 4.0 0.00 0.00 0.00 66 1019.8
20260905143351 84 360 0.0 2.0 0.00 0.00 0.00 64 1019.7
20260905142839 84 240 0.0 0.0 0.00 0.00 0.00 65 1019.8